Notices

What's New in latest Release from April 7th, 2021:

- Updated Glossary, including Speed of Maximum Gust, and Total Hourly Precipitation

- Updated national and regional climate services offices contacts and prices information

- Addition of station inventory lists for 1981-2010, 1971-2000, and 1961-1990 Normals.

If you haven't already, please take our survey and provide feedback about our website: https://eccc.sondage-survey.ca/f/LanguageSelection.aspx?s=442ca660-fcf1-47c0-95a9-59707d6fd709

Hourly Data Report for November 20, 2017

VICTORIA UNIVERSITY CS
BRITISH COLUMBIA

48°27'25.200" N
123°18'16.600" W
60.10 m
1018598
71783
WYJ

Download Data

Hourly Data (November 2017)
Hourly Data Report for November 20, 2017
TIME
LST
Temp Definition
°C
Dew Point Definition
°C
Rel Hum Definition
%
Precip. Amount Definition
mm

Wind Dir Definition
10's deg

Wind Spd Definition
km/h
Visibility Definition
km
Stn Press Definition
kPa
Hmdx Definition


Wind Chill Definition


Weather Definition


00:00 6.9 6.2 95 0.7 9 5   99.25     LegendNANA
01:00 7.2 6.4 95 0.0 8 8   99.22     LegendNANA
02:00 7.4 6.9 96 1.2 9 3   99.24     LegendNANA
03:00 7.2 6.8 97 2.3 11 2   99.28     LegendNANA
04:00 7.1 6.7 97 1.3 36 4   99.23     LegendNANA
05:00 7.3 6.9 98 1.0 5 2   99.25     LegendNANA
06:00 7.4 7.1 98 2.1 32 3   99.28     LegendNANA
07:00 7.1 6.7 97 0.6 32 8   99.31     LegendNANA
08:00 6.7 6.3 97 0.0 35 5   99.42     LegendNANA
09:00 6.8 6.4 97 0.0 33 6   99.51     LegendNANA
10:00 7.2 6.8 97 0.0 33 5   99.66     LegendNANA
11:00 7.8 7.0 95 0.0 34 5   99.82     LegendNANA
12:00 9.3 5.2 76 0.0 25 8   99.96     LegendNANA
13:00 10.2 3.2 62 0.0 25 13   100.08     LegendNANA
14:00 10.2 1.2 54 0.0 24 11   100.24     LegendNANA
15:00 9.7 2.3 60 0.0 26 11   100.37     LegendNANA
16:00 8.3 2.5 67 0.0 26 8   100.46     LegendNANA
17:00 5.4 2.4 81 0.0 21 3   100.58     LegendNANA
18:00 4.6 2.8 88 0.0 31 3   100.69     LegendNANA
19:00 4.8 2.6 85 0.0 30 6   100.78     LegendNANA
20:00 2.8 1.5 91 0.0 22 1   100.93     LegendNANA
21:00 2.8 2.1 96 0.0 34 1   101.02     LegendNANA
22:00 3.0 2.5 97 0.0 0 1   101.09     LegendNANA
23:00 3.0 2.6 97 0.0 34 2   101.06     LegendNANA

Notes on Data Quality.

Legend

  • E = Estimated
  • M = Missing
  • NA = Not Available*
  • [empty] = Indicates an unobserved value
Date modified: